DW9580 Weather Reports


time (UTC)temp
F
wind
direction
speed
knots
gust
knots
rain 1hr
in
rain 24hr
in
rain mn
in
humidity
%
barometer
mb
20260502214205 60 117 0.0 0.0 0.02 0.74 0.74 80 1012.4
20260502213705 60 117 0.0 0.0 0.02 0.74 0.74 80 1012.4
20260502213206 60 117 0.0 0.0 0.02 0.74 0.74 80 1012.4
20260502212705 60 117 0.0 0.0 0.02 0.74 0.74 80 1012.4
20260502212205 60 117 0.0 0.0 0.02 0.74 0.74 80 1012.5
20260502211206 60 117 0.0 0.0 0.02 0.73 0.73 79 1012.4
20260502210705 60 117 0.0 0.0 0.02 0.73 0.73 79 1012.5
20260502210205 60 117 0.0 0.0 0.02 0.73 0.73 79 1012.5
20260502205705 59 118 0.0 0.0 0.02 0.73 0.73 79 1012.5
20260502205206 59 140 0.0 0.0 0.02 0.73 0.73 79 1012.6
20260502204705 59 133 0.0 0.0 0.02 0.73 0.73 79 1012.6
20260502203705 59 229 0.0 0.0 0.02 0.72 0.72 79 1012.6
20260502202205 58 240 0.0 0.0 0.02 0.72 0.72 79 1012.7
20260502201704 58 240 0.0 0.0 0.02 0.72 0.72 79 1012.7
20260502201206 58 240 0.0 0.0 0.02 0.72 0.72 79 1012.7
20260502200705 58 240 0.0 0.0 0.02 0.72 0.72 80 1012.8
20260502200206 58 240 0.0 0.0 0.02 0.72 0.72 79 1012.9
20260502195705 58 240 0.0 0.0 0.02 0.71 0.71 80 1012.9
20260502195205 58 240 0.0 0.0 0.02 0.71 0.71 80 1012.9
20260502194705 58 240 0.0 0.0 0.02 0.71 0.71 80 1013.0
20260502194205 58 240 0.0 0.0 0.03 0.71 0.71 80 1013.0
20260502193704 58 240 0.0 0.0 0.03 0.71 0.71 80 1013.0
20260502191209 58 240 0.0 0.0 0.03 0.69 0.69 80 1013.5
20260502190705 57 240 0.0 0.0 0.04 0.69 0.69 81 1013.4
20260502190205 57 240 0.0 0.0 0.05 0.69 0.69 81 1013.4
20260502185705 57 240 0.0 0.0 0.04 0.69 0.69 81 1013.5
20260502185205 57 240 0.0 0.0 0.05 0.69 0.69 81 1013.6
20260502184705 57 240 0.0 0.0 0.04 0.68 0.68 81 1013.7
20260502184208 57 240 0.0 0.0 0.05 0.68 0.68 81 1013.7
20260502183205 57 240 0.0 0.0 0.05 0.67 0.67 81 1013.4
20260502182705 57 240 0.0 0.0 0.06 0.67 0.67 81 1013.5
20260502181705 57 240 0.0 0.0 0.06 0.66 0.66 82 1013.2
20260502181207 58 240 0.0 0.0 0.07 0.66 0.66 82 1013.4
20260502180705 58 240 0.0 0.0 0.07 0.65 0.65 82 1013.4
20260502180205 58 240 0.0 0.0 0.07 0.65 0.65 82 1013.5
20260502170205 66 125 0.9 4.3 0.10 0.57 0.57 81 1013.3
20260502164204 66 125 1.7 4.3 0.11 0.54 0.54 81 1012.9
20260502163705 66 125 1.7 4.3 0.10 0.53 0.53 81 1012.9
20260502163205 66 125 1.7 4.3 0.11 0.53 0.53 81 1013.1
20260502162705 66 125 1.7 4.3 0.10 0.51 0.51 81 1013.3
20260502161705 67 125 0.0 0.0 0.10 0.50 0.50 81 1013.4
20260502152205 69 251 0.0 0.9 0.13 0.40 0.40 77 1013.9
20260502151705 69 251 0.0 0.9 0.13 0.39 0.39 77 1014.0
20260502151205 69 251 0.0 0.0 0.13 0.38 0.38 76 1014.1
20260502150705 69 251 0.0 0.0 0.15 0.38 0.38 76 1014.2
20260502150205 69 251 0.0 0.0 0.14 0.36 0.36 76 1014.3
20260502130707 65 159 0.0 0.0 0.05 0.05 0.05 79 1015.8
20260502130205 65 160 0.0 5.2 0.04 0.04 0.04 79 1016.0
20260502123705 73 257 1.7 5.2 0.00 0.00 0.00 56 1015.9
20260502123205 74 259 0.9 3.5 0.00 0.00 0.00 54 1015.8
20260502122705 74 259 0.0 0.0 0.00 0.00 0.00 53 1015.8
20260502122206 74 259 0.0 0.0 0.00 0.00 0.00 53 1015.9
20260502121705 75 237 0.0 0.0 0.00 0.00 0.00 52 1016.0
20260502121205 74 244 0.0 0.0 0.00 0.00 0.00 54 1016.0
20260502120705 74 243 0.0 0.0 0.00 0.00 0.00 54 1016.1
20260502120205 74 239 0.0 4.3 0.00 0.00 0.00 53 1016.1
20260502115704 74 247 0.9 6.1 0.00 0.00 0.00 57 1016.1
20260502114706 74 246 1.7 8.7 0.00 0.00 0.00 55 1016.3
20260502114206 74 246 2.6 8.7 0.00 0.00 0.00 55 1016.3
20260502113705 74 257 1.7 7.8 0.00 0.00 0.00 56 1016.4
20260502113205 74 246 1.7 7.8 0.00 0.00 0.00 53 1016.4
20260502112705 74 246 2.6 7.8 0.00 0.00 0.00 53 1016.4
20260502111705 74 244 1.7 7.0 0.00 0.00 0.00 52 1016.6
20260502111205 74 245 0.9 6.1 0.00 0.00 0.00 52 1016.6
20260502110705 74 245 0.0 3.5 0.00 0.00 0.00 53 1016.6
20260502110205 74 246 0.0 4.3 0.00 0.00 0.00 53 1016.7
20260502105705 74 246 0.9 7.0 0.00 0.00 0.00 55 1016.7
20260502104706 73 245 1.7 6.1 0.00 0.00 0.00 55 1016.8
20260502104205 73 248 1.7 6.1 0.00 0.00 0.00 55 1016.9
20260502103705 73 248 1.7 7.8 0.00 0.00 0.00 54 1016.9
20260502102705 72 266 3.5 9.6 0.00 0.00 0.00 55 1017.1
20260502102205 72 256 2.6 9.6 0.00 0.00 0.00 56 1017.1
20260502101206 72 251 3.5 8.7 0.00 0.00 0.00 56 1017.2
20260502100706 72 242 2.6 8.7 0.00 0.00 0.00 55 1017.2
20260502100206 72 233 1.7 7.8 0.00 0.00 0.00 56 1017.3
20260502091224 70 236 1.7 9.6 0.00 0.00 0.00 56 1017.6
20260502090705 70 236 2.6 8.7 0.00 0.00 0.00 55 1017.5
20260502090222 70 233 0.9 8.7 0.00 0.00 0.00 55 1017.6
20260502071207 65 223 0.0 0.0 0.00 0.00 0.00 60 1017.8
20260502070705 65 223 0.0 0.0 0.00 0.00 0.00 60 1017.9
20260502070205 65 213 0.0 0.0 0.00 0.00 0.00 60 1018.0
20260502065205 64 217 0.0 0.0 0.00 0.00 0.00 60 1017.9
20260502064705 64 216 0.0 0.0 0.00 0.00 0.00 60 1018.0
20260502063705 64 182 0.0 0.0 0.00 0.00 0.00 58 1017.9
20260502063205 64 180 0.0 0.0 0.00 0.00 0.00 56 1017.9
20260502062705 63 180 0.0 0.0 0.00 0.00 0.00 55 1017.9
20260502062205 63 180 0.0 0.0 0.00 0.00 0.00 54 1017.9
20260502061710 63 180 0.0 0.0 0.00 0.00 0.00 53 1017.9
20260502061205 63 177 0.0 0.0 0.00 0.00 0.00 53 1017.9
20260502060706 63 176 0.0 0.0 0.00 0.00 0.00 52 1017.9
20260502060205 63 176 0.0 0.0 0.00 0.00 0.00 52 1017.8
20260502055708 63 176 0.0 0.0 0.00 0.00 0.00 51 1017.9
20260502055205 63 176 0.0 0.0 0.00 0.00 0.00 51 1017.9
20260502054705 63 176 0.0 0.0 0.00 0.00 0.00 51 1017.9
20260502054205 63 175 0.0 0.0 0.00 0.00 0.00 51 1017.8
20260502053705 62 175 0.0 0.0 0.00 0.00 0.00 51 1017.9
20260502053205 62 175 0.0 0.0 0.00 0.00 0.00 51 1017.9
20260502052705 62 174 0.0 0.0 0.00 0.00 0.00 51 1017.9
20260502051705 61 173 0.0 0.0 0.00 0.00 0.00 52 1017.8
20260502051205 60 173 0.0 0.0 0.00 0.00 0.00 52 1017.7
20260502050208 58 173 0.0 0.0 0.00 0.00 0.00 53 1017.7
20260502045206 57 173 0.0 0.0 0.00 0.00 0.00 54 1017.6
20260502044705 56 173 0.0 0.0 0.00 0.00 0.00 55 1017.6
20260502044205 56 173 0.0 0.0 0.00 0.00 0.00 55 1017.5
20260502043705 55 173 0.0 0.0 0.00 0.00 0.00 56 1017.6
20260502043208 55 173 0.0 0.0 0.00 0.00 0.00 56 1017.6
20260502042705 55 173 0.0 0.0 0.00 0.00 0.00 57 1017.7
20260502042205 54 173 0.0 0.0 0.00 0.00 0.00 58 1017.7
20260502041705 53 173 0.0 0.0 0.00 0.00 0.00 59 1017.7
20260502041205 53 173 0.0 0.0 0.00 0.00 0.00 61 1017.7
20260502040705 53 173 0.0 0.0 0.00 0.00 0.00 62 1017.8
20260502040205 53 173 0.0 0.0 0.00 0.00 0.00 62 1017.8
20260502035705 52 173 0.0 0.0 0.00 0.00 0.00 62 1017.8
20260502035205 52 173 0.0 0.0 0.00 0.00 0.00 63 1017.8
20260502034707 51 173 0.0 0.0 0.00 0.00 0.00 64 1017.8
20260502034206 51 173 0.0 0.0 0.00 0.00 0.00 65 1017.7
20260502033712 50 173 0.0 0.0 0.00 0.00 0.00 66 1017.7
20260502033205 50 173 0.0 0.0 0.00 0.00 0.00 66 1017.8
20260502032705 49 173 0.0 0.0 0.00 0.00 0.00 67 1017.9
20260502032205 49 173 0.0 0.0 0.00 0.00 0.00 67 1017.9
20260502031705 49 173 0.0 0.0 0.00 0.00 0.00 67 1017.9
20260502031205 49 173 0.0 0.0 0.00 0.00 0.00 67 1017.9
20260502030734 49 173 0.0 0.0 0.00 0.00 0.00 68 1017.9
20260502030228 49 173 0.0 0.0 0.00 0.00 0.00 68 1018.0
20260502025704 49 173 0.0 0.0 0.00 0.00 0.00 68 1018.0
20260502025206 49 173 0.0 0.0 0.00 0.00 0.00 68 1018.1
20260502024705 49 173 0.0 0.0 0.00 0.00 0.00 68 1018.1
20260502024206 49 173 0.0 0.0 0.00 0.00 0.00 68 1018.1
20260502023207 49 173 0.0 0.0 0.00 0.00 0.00 68 1018.3
20260502022705 49 173 0.0 0.0 0.00 0.00 0.00 68 1018.3
20260502022205 49 173 0.0 0.0 0.00 0.00 0.00 68 1018.3
20260502021705 49 173 0.0 0.0 0.00 0.00 0.00 67 1018.4
20260502021221 49 173 0.0 0.0 0.00 0.00 0.00 67 1018.4
20260502020730 49 173 0.0 0.0 0.00 0.00 0.00 67 1018.5
20260502020207 49 173 0.0 0.0 0.00 0.00 0.00 67 1018.6
20260502015705 49 173 0.0 0.0 0.00 0.00 0.00 66 1018.6
20260502015205 50 173 0.0 0.0 0.00 0.00 0.00 66 1018.7
20260502014706 50 173 0.0 0.0 0.00 0.00 0.00 65 1018.7
20260502014208 50 173 0.0 0.0 0.00 0.00 0.00 64 1018.7
20260502013705 50 173 0.0 0.0 0.00 0.00 0.00 63 1018.8
20260502012705 51 173 0.0 0.0 0.00 0.00 0.00 62 1018.9
20260502012206 51 173 0.0 0.0 0.00 0.00 0.00 60 1018.8
20260502011705 52 173 0.0 0.0 0.00 0.00 0.00 59 1018.8
20260502011205 52 173 0.0 0.0 0.00 0.00 0.00 58 1018.8
20260502010705 53 173 0.0 0.0 0.00 0.00 0.00 57 1018.9
20260502010205 53 173 0.0 0.0 0.00 0.00 0.00 57 1018.9
20260502005705 53 173 0.0 0.0 0.00 0.00 0.00 55 1018.9
20260502005205 53 173 0.0 0.0 0.00 0.00 0.00 54 1018.9
20260502004205 54 173 0.0 0.0 0.00 0.00 0.00 52 1018.9
20260502003705 55 173 0.0 0.0 0.00 0.00 0.00 51 1019.0
20260502003205 55 173 0.0 0.0 0.00 0.00 0.00 51 1019.0
20260502002706 56 173 0.0 0.0 0.00 0.00 0.00 50 1019.0
20260502002205 56 173 0.0 0.0 0.00 0.00 0.00 50 1019.1
20260502001206 57 173 0.0 0.0 0.00 0.00 0.00 49 1019.2
20260502000705 57 173 0.0 0.0 0.00 0.00 0.00 48 1019.3
20260502000205 57 173 0.0 0.0 0.00 0.00 0.00 47 1019.4
20260501235705 57 173 0.0 0.0 0.00 0.00 0.00 47 1019.5
20260501235205 57 173 0.0 0.0 0.00 0.00 0.00 47 1019.6
20260501234205 57 173 0.0 0.0 0.00 0.00 0.00 47 1019.7
20260501233705 58 173 0.0 0.0 0.00 0.00 0.00 46 1019.8
20260501233205 58 173 0.0 0.0 0.00 0.00 0.00 46 1019.8
20260501232706 58 173 0.0 0.0 0.00 0.00 0.00 46 1019.9
20260501232205 58 173 0.0 0.0 0.00 0.00 0.00 45 1019.9
20260501231705 58 173 0.0 0.0 0.00 0.00 0.00 45 1020.0
20260501231205 59 173 0.0 0.0 0.00 0.00 0.00 44 1020.0
20260501230705 59 173 0.0 0.0 0.00 0.00 0.00 44 1020.0
20260501230230 59 173 0.0 0.0 0.00 0.00 0.00 45 1020.1
20260501225205 58 173 0.0 0.0 0.00 0.00 0.00 45 1020.1
20260501224706 58 173 0.0 0.0 0.00 0.00 0.00 45 1020.2
20260501224207 58 173 0.0 0.0 0.00 0.00 0.00 46 1020.2
20260501223705 58 173 0.0 0.0 0.00 0.00 0.00 46 1020.1
20260501223205 58 173 0.0 0.0 0.00 0.00 0.00 47 1020.1
20260501222705 58 173 0.0 0.0 0.00 0.00 0.00 47 1020.2
20260501222206 58 173 0.0 0.0 0.00 0.00 0.00 46 1020.2
20260501220205 59 173 0.0 0.0 0.00 0.00 0.00 45 1020.2
20260501215206 60 173 0.0 0.0 0.00 0.00 0.00 44 1020.2